Princeton, MN

2:58 AM CST on December 11, 2019 (GMT -0600)
Princeton Municipal

Weather History for KPNM - May, 2019

Change the Weather History Date:

Wednesday, May 22, 2019

  Actual Average Record
Temperature  
Mean Temperature 52 °F -  
Max Temperature 57 °F 65 °F 84 °F (2012)
Min Temperature 46 °F 42 °F 30 °F (2006)
Degree Days  
Heating Degree Days 14    
Growing Degree Days 2 (Base 50)    
Moisture  
Dew Point 50 °F    
Average Humidity 93    
Maximum Humidity 100    
Minimum Humidity 82    
Precipitation  
Precipitation 0.00 in - - ()
Sea Level Pressure  
Sea Level Pressure 29.61 in    
Wind  
Wind Speed 11 mph (SE)    
Max Wind Speed 18 mph    
Max Gust Speed 25 mph    
Visibility 8 miles    
Events Rain    
Averages and records for this station are not official NWS values.
T = Trace of Precipitation, MM = Missing Value Source: NWS Daily Summary

Daily Weather History Graph

Daily Weather History Graph

Search for Another Location

Airport or City:

Astronomy

May. 22, 2019 Rise Set
Actual Time 5:36 AM CDT 8:46 PM CDT
Civil Twilight 5:00 AM CDT 9:22 PM CDT
Nautical Twilight 4:14 AM CDT 10:08 PM CDT
Astronomical Twilight 3:18 AM CDT 11:05 PM CDT
Moon No Moon Rise 8:43 AM CDT (5/22)
Length of Visible Light 16h 21m
Length of Day
15h 09m
Waning Gibbous, 85% of the Moon is Illuminated
May 22
Waning Gibbous
May 26
Last Quarter
Jun 3
New
Jun 10
First Quarter
Jun 17
Full

Hourly Weather History & Observations

Time (CDT) Temp. Windchill Dew Point Humidity Pressure Visibility Wind Dir Wind Speed Gust Speed Precip Events Conditions
12:15 AM 46.4 °F 41.1 °F 44.6 °F 93% 29.77 in 7.0 mi ENE 11.5 mph 17.3 mph N/A Rain Rain
12:16 AM 46.4 °F 40.7 °F 44.6 °F 93% 29.76 in 7.0 mi ENE 12.7 mph 18.4 mph N/A Rain Rain
12:35 AM 46.4 °F 41.5 °F 44.6 °F 93% 29.75 in 10.0 mi ENE 10.4 mph 19.6 mph N/A Rain Rain
12:36 AM 46.4 °F 41.1 °F 44.6 °F 93% 29.75 in 10.0 mi ENE 11.5 mph 19.6 mph N/A Rain Rain
12:55 AM 46.4 °F 41.5 °F 44.6 °F 93% 29.74 in 7.0 mi ENE 10.4 mph 19.6 mph N/A Rain Rain
1:15 AM 46.4 °F 40.1 °F 44.6 °F 93% 29.72 in 7.0 mi ENE 15.0 mph 25.3 mph N/A Rain Light Rain
1:35 AM 46.4 °F 40.1 °F 44.6 °F 93% 29.71 in 7.0 mi East 15.0 mph 21.9 mph N/A Rain Light Rain
1:36 AM 46.4 °F 40.7 °F 44.6 °F 93% 29.71 in 7.0 mi East 12.7 mph 21.9 mph N/A Rain Rain
1:55 AM 46.4 °F 40.7 °F 44.6 °F 93% 29.70 in 7.0 mi ENE 12.7 mph 17.3 mph N/A Rain Rain
2:15 AM 46.4 °F 40.1 °F 46.4 °F 100% 29.68 in 7.0 mi ENE 15.0 mph 21.9 mph N/A Rain Rain
2:35 AM 46.4 °F 41.1 °F 46.4 °F 100% 29.66 in 7.0 mi ENE 11.5 mph 20.7 mph N/A Rain Rain
2:36 AM 46.4 °F 41.1 °F 46.4 °F 100% 29.66 in 7.0 mi ENE 11.5 mph 20.7 mph N/A Rain Rain
2:55 AM 46.4 °F 40.4 °F 46.4 °F 100% 29.65 in 7.0 mi ENE 13.8 mph 19.6 mph N/A Rain Rain
3:15 AM 46.4 °F 41.5 °F 46.4 °F 100% 29.65 in 4.0 mi East 10.4 mph 23.0 mph N/A   Drizzle
3:35 AM 46.4 °F 41.9 °F 46.4 °F 100% 29.65 in 5.0 mi East 9.2 mph 18.4 mph N/A   Drizzle
3:36 AM 46.4 °F 41.9 °F 46.4 °F 100% 29.65 in 5.0 mi East 9.2 mph 18.4 mph N/A   Drizzle
3:55 AM 48.2 °F - 46.4 °F 93% 29.64 in 5.0 mi East 9.2 mph 19.6 mph N/A   Drizzle
4:15 AM 48.2 °F - 46.4 °F 93% 29.63 in 4.0 mi East 13.8 mph 24.2 mph N/A   Light Drizzle
4:35 AM 48.2 °F - 46.4 °F 93% 29.62 in 5.0 mi East 11.5 mph 19.6 mph N/A   Overcast
4:36 AM 48.2 °F - 46.4 °F 93% 29.62 in 5.0 mi East 10.4 mph 19.6 mph N/A   Overcast
4:55 AM 48.2 °F - 46.4 °F 93% 29.60 in 5.0 mi East 11.5 mph 24.2 mph N/A Rain Light Rain
4:56 AM 48.2 °F - 46.4 °F 93% 29.60 in 5.0 mi East 12.7 mph 24.2 mph N/A Rain Light Rain
5:15 AM 48.2 °F - 46.4 °F 93% 29.60 in 10.0 mi East 12.7 mph 23.0 mph N/A   Overcast
5:16 AM 48.2 °F - 46.4 °F 93% 29.59 in 10.0 mi East 12.7 mph 19.6 mph N/A   Overcast
5:35 AM 48.2 °F - 46.4 °F 93% 29.59 in 4.0 mi East 11.5 mph 19.6 mph N/A   Overcast
5:36 AM 48.2 °F - 46.4 °F 93% 29.59 in 4.0 mi East 12.7 mph 19.6 mph N/A   Overcast
5:55 AM 48.2 °F - 46.4 °F 93% 29.59 in 4.0 mi East 10.4 mph 18.4 mph N/A   Overcast
6:15 AM 48.2 °F - 46.4 °F 93% 29.58 in 4.0 mi East 11.5 mph 17.3 mph N/A Rain Light Rain
6:35 AM 48.2 °F - 46.4 °F 93% 29.57 in 3.0 mi East 10.4 mph 23.0 mph N/A Rain Light Rain
6:36 AM 48.2 °F - 46.4 °F 93% 29.57 in 3.0 mi East 13.8 mph 20.7 mph N/A Rain Light Rain
6:55 AM 48.2 °F - 46.4 °F 93% 29.57 in 2.0 mi East 9.2 mph 17.3 mph N/A Rain Light Rain
7:15 AM 48.2 °F - 48.2 °F 100% 29.56 in 5.0 mi East 13.8 mph 20.7 mph N/A Rain Rain
7:35 AM 48.2 °F - 48.2 °F 100% 29.55 in 10.0 mi ENE 15.0 mph 23.0 mph N/A Rain Rain
7:55 AM 48.2 °F - 48.2 °F 100% 29.55 in 10.0 mi East 13.8 mph 20.7 mph N/A Rain Light Rain
8:15 AM 48.2 °F - 48.2 °F 100% 29.55 in 7.0 mi East 13.8 mph 19.6 mph N/A Rain Light Rain
8:16 AM 48.2 °F - 48.2 °F 100% 29.54 in 7.0 mi East 12.7 mph 19.6 mph N/A Rain Light Rain
8:35 AM 50.0 °F - 48.2 °F 94% 29.54 in 7.0 mi East 12.7 mph 19.6 mph N/A Rain Rain
8:55 AM 50.0 °F - 48.2 °F 94% 29.53 in 7.0 mi ENE 13.8 mph 19.6 mph N/A Rain Light Rain
9:15 AM 50.0 °F - 48.2 °F 94% 29.53 in 7.0 mi East 8.1 mph 23.0 mph N/A   Drizzle
9:16 AM 50.0 °F - 48.2 °F 94% 29.53 in 7.0 mi East 10.4 mph 23.0 mph N/A   Drizzle
9:35 AM 50.0 °F - 48.2 °F 94% 29.53 in 10.0 mi East 13.8 mph 17.3 mph N/A Rain Rain
9:55 AM 51.8 °F - 50.0 °F 94% 29.52 in 10.0 mi East 12.7 mph 18.4 mph N/A Rain Rain
10:15 AM 51.8 °F - 50.0 °F 94% 29.52 in 7.0 mi East 13.8 mph 18.4 mph N/A Rain Rain
10:35 AM 51.8 °F - 50.0 °F 94% 29.52 in 10.0 mi East 12.7 mph 17.3 mph N/A Rain Rain
10:55 AM 51.8 °F - 50.0 °F 94% 29.52 in 10.0 mi East 10.4 mph 17.3 mph N/A Rain Rain
10:56 AM 51.8 °F - 50.0 °F 94% 29.52 in 10.0 mi East 11.5 mph 17.3 mph N/A Rain Rain
11:15 AM 51.8 °F - 51.8 °F 100% 29.52 in 7.0 mi East 6.9 mph 10.4 mph N/A Rain Rain
11:16 AM 51.8 °F - 51.8 °F 100% 29.52 in 7.0 mi East 5.8 mph - N/A Rain Rain
11:35 AM 51.8 °F - 51.8 °F 100% 29.52 in 10.0 mi East 8.1 mph - N/A Rain Rain
11:55 AM 53.6 °F - 51.8 °F 94% 29.52 in 10.0 mi East 8.1 mph - N/A   Light Drizzle
11:56 AM 53.6 °F - 51.8 °F 94% 29.52 in 10.0 mi East 8.1 mph - N/A   Overcast
12:15 PM 55.4 °F - 53.6 °F 94% 29.52 in 10.0 mi East 9.2 mph - N/A   Mostly Cloudy
12:16 PM 55.4 °F - 53.6 °F 94% 29.52 in 10.0 mi East 9.2 mph - N/A   Mostly Cloudy
12:35 PM 55.4 °F - 53.6 °F 94% 29.52 in 10.0 mi East 8.1 mph - N/A Rain Rain
12:36 PM 55.4 °F - 53.6 °F 94% 29.52 in 10.0 mi East 8.1 mph - N/A Rain Rain
12:55 PM 53.6 °F - 53.6 °F 100% 29.53 in 10.0 mi SE 9.2 mph - N/A Rain Light Rain
12:56 PM 53.6 °F - 53.6 °F 100% 29.53 in 10.0 mi SE 6.9 mph - N/A Rain Light Rain
1:15 PM 57.2 °F - 55.4 °F 94% 29.53 in 10.0 mi ESE 6.9 mph - N/A   Overcast
1:35 PM 55.4 °F - 55.4 °F 100% 29.53 in 10.0 mi SE 6.9 mph - N/A   Overcast
1:36 PM 55.4 °F - 55.4 °F 100% 29.53 in 10.0 mi SSE 8.1 mph - N/A   Overcast
1:55 PM 57.2 °F - 55.4 °F 94% 29.53 in 10.0 mi South 9.2 mph - N/A   Mostly Cloudy
1:56 PM 57.2 °F - 55.4 °F 94% 29.53 in 10.0 mi South 10.4 mph - N/A   Mostly Cloudy
2:15 PM 55.4 °F - 53.6 °F 94% 29.54 in 7.0 mi South 9.2 mph - N/A Rain Light Rain
2:35 PM 57.2 °F - 53.6 °F 88% 29.54 in 10.0 mi South 15.0 mph 24.2 mph N/A   Mostly Cloudy
2:55 PM 55.4 °F - 51.8 °F 88% 29.55 in 10.0 mi South 9.2 mph - N/A   Overcast
2:56 PM 55.4 °F - 51.8 °F 88% 29.55 in 10.0 mi South 8.1 mph - N/A   Overcast
3:15 PM 55.4 °F - 51.8 °F 88% 29.57 in 7.0 mi South 12.7 mph 24.2 mph N/A   Overcast
3:35 PM 57.2 °F - 51.8 °F 82% 29.57 in 7.0 mi South 13.8 mph 19.6 mph N/A   Mostly Cloudy
3:36 PM 57.2 °F - 51.8 °F 82% 29.57 in 10.0 mi South 13.8 mph 19.6 mph N/A   Mostly Cloudy
3:55 PM 55.4 °F - 51.8 °F 88% 29.58 in 4.0 mi South 12.7 mph 19.6 mph N/A Rain Rain
4:15 PM 55.4 °F - 53.6 °F 94% 29.58 in 10.0 mi South 10.4 mph 16.1 mph N/A   Overcast
4:35 PM 57.2 °F - 51.8 °F 82% 29.59 in 10.0 mi SSE 10.4 mph - N/A   Overcast
4:36 PM 57.2 °F - 51.8 °F 82% 29.59 in 10.0 mi South 10.4 mph 16.1 mph N/A   Overcast
4:55 PM 57.2 °F - 51.8 °F 82% 29.60 in 10.0 mi South 13.8 mph 19.6 mph N/A   Overcast
5:15 PM 55.4 °F - 51.8 °F 88% 29.60 in 7.0 mi South 8.1 mph 19.6 mph N/A   Overcast
5:35 PM 57.2 °F - 51.8 °F 82% 29.60 in 7.0 mi South 9.2 mph - N/A   Mostly Cloudy
5:55 PM 55.4 °F - 51.8 °F 88% 29.61 in 3.0 mi South 8.1 mph 16.1 mph N/A Rain Rain
6:15 PM 55.4 °F - 51.8 °F 88% 29.62 in 5.0 mi SSE 6.9 mph - N/A Rain Rain
6:35 PM 55.4 °F - 53.6 °F 94% 29.62 in 7.0 mi SSE 5.8 mph - N/A Rain Light Rain
6:36 PM 55.4 °F - 53.6 °F 94% 29.62 in 7.0 mi SSE 5.8 mph - N/A Rain Light Rain
6:55 PM 55.4 °F - 51.8 °F 88% 29.63 in 10.0 mi South 11.5 mph 16.1 mph N/A Rain Rain
7:15 PM 55.4 °F - 51.8 °F 88% 29.64 in 7.0 mi South 12.7 mph - N/A Rain Light Rain
7:35 PM 55.4 °F - 51.8 °F 88% 29.65 in 5.0 mi South 18.4 mph 25.3 mph N/A Rain Rain
7:36 PM 55.4 °F - 51.8 °F 88% 29.65 in 5.0 mi South 17.3 mph 25.3 mph N/A Rain Rain
7:55 PM 53.6 °F - 51.8 °F 94% 29.66 in 3.0 mi South 12.7 mph 19.6 mph N/A Rain Light Rain
7:56 PM 53.6 °F - 51.8 °F 94% 29.66 in 3.0 mi South 12.7 mph 19.6 mph N/A Rain Light Rain
8:15 PM 53.6 °F - 51.8 °F 94% 29.66 in 7.0 mi South 10.4 mph 16.1 mph N/A   Drizzle
8:16 PM 53.6 °F - 51.8 °F 94% 29.66 in 7.0 mi South 9.2 mph 16.1 mph N/A   Drizzle
8:35 PM 53.6 °F - 51.8 °F 94% 29.67 in 7.0 mi South 10.4 mph 18.4 mph N/A Rain Light Rain
8:36 PM 53.6 °F - 51.8 °F 94% 29.67 in 7.0 mi South 10.4 mph 18.4 mph N/A Rain Light Rain
8:55 PM 53.6 °F - 51.8 °F 94% 29.67 in 10.0 mi South 9.2 mph 17.3 mph N/A   Overcast
9:15 PM 53.6 °F - 51.8 °F 94% 29.67 in 10.0 mi South 9.2 mph - N/A   Overcast
9:35 PM 53.6 °F - 51.8 °F 94% 29.68 in 10.0 mi South 8.1 mph - N/A   Overcast
9:36 PM 53.6 °F - 51.8 °F 94% 29.68 in 10.0 mi South 8.1 mph - N/A   Overcast
9:55 PM 53.6 °F - 50.0 °F 88% 29.69 in 10.0 mi South 4.6 mph - N/A   Overcast
10:15 PM 53.6 °F - 51.8 °F 94% 29.69 in 10.0 mi South 5.8 mph - N/A   Overcast
10:35 PM 53.6 °F - 51.8 °F 94% 29.69 in 10.0 mi South 5.8 mph - N/A   Overcast
10:36 PM 53.6 °F - 51.8 °F 94% 29.69 in 10.0 mi South 6.9 mph - N/A   Overcast
10:55 PM 53.6 °F - 51.8 °F 94% 29.69 in 10.0 mi South 5.8 mph - N/A   Overcast
11:15 PM 53.6 °F - 51.8 °F 94% 29.70 in 10.0 mi South 6.9 mph - N/A   Overcast
11:35 PM 53.6 °F - 51.8 °F 94% 29.70 in 10.0 mi SSW 6.9 mph - N/A   Overcast
11:36 PM 53.6 °F - 51.8 °F 94% 29.71 in 10.0 mi SSW 5.8 mph - N/A   Overcast
11:55 PM 53.6 °F - 51.8 °F 94% 29.71 in 5.0 mi SSW 5.8 mph - N/A   Heavy Drizzle
11:56 PM 53.6 °F - 51.8 °F 94% 29.71 in 5.0 mi SSW 6.9 mph - N/A   Heavy Drizzle